Miscellaneous Local Product
Issued by NWS North Platte, NE

Home | Current Version | Previous Version | Text Only | Print | Product List | Glossary On
Versions: 1 2 3 4 5 6 7 8 9 10 11 12 13 14 15 16 17 18 19 20 21 22 23 24 25 26 27 28 29 30 31 32 33 34 35 36 37 38 39 40 41 42 43 44 45 46 47 48 49 50
000
AXUS43 KLBF 261710
MISLBF


WESTERN AND NORTH CENTRAL NEBRASKA HOURLY WEATHER ROUNDUP
NATIONAL WEATHER SERVICE NORTH PLATTE NE
1200 PM CDT THU MAY 26 2016

NOTE: "FAIR" INDICATES FEW OR NO CLOUDS BELOW 12,000 FEET WITH NO
SIGNIFICANT WEATHER AND/OR OBSTRUCTIONS TO VISIBILITY.

NOTE: STATIONS NOT REPORTING VARIABLES SUCH AS SKY/WEATHER OR
PRESSURE ARE PROVIDED BY RAWS AND APRS NETWORKS AND ARE NOT UNDER
NATIONAL WEATHER SERVICE QUALITY CONTROL.

...OBSERVATIONS IN AND NEAR THE EASTERN PANHANDLE OF NEBRASKA...

CITY           SKY/WX    TMP DP  RH WIND       PRES   REMARKS
PINE RIDGE     SUNNY     67  45  45 VRB6      29.90F
CHADRON        SUNNY     68  43  40 NW7       29.91F
ALLIANCE       SUNNY     69  41  36 VRB3      29.92F
SIDNEY         LGT RAIN  61  44  53 N7        29.94F
BIG SPRINGS      N/A     61  51  70 CALM        N/A
$$

...OBSERVATIONS IN NORTHERN NEBRASKA AND FAR SOUTHERN SOUTH DAKOTA...

CITY           SKY/WX    TMP DP  RH WIND       PRES   REMARKS
WINNER         FAIR      73  53  49 S13       29.88F
VALENTINE      CLOUDY    69  50  50 S13       29.90F
THEDFORD       CLOUDY    67  50  54 SE8       29.90F
AINSWORTH      PTSUNNY   62  52  70 SE5       29.92F
O`NEILL        CLOUDY    65  56  73 CALM      29.93R
ORD            CLOUDY    68  55  63 E7        29.90S
BROKEN BOW     PTSUNNY   70  53  54 W3        29.92F
BUTTE            N/A     66  54  66 SE3         N/A
CHAMBERS         N/A     65  57  76 NW3         N/A
EWING            N/A     66  57  74 CALM        N/A
$$

...OBSERVATIONS IN SOUTHWEST NEBRASKA AND FAR NORTHEAST COLORADO...

CITY           SKY/WX    TMP DP  RH WIND       PRES   REMARKS
IMPERIAL       MOSUNNY   72  50  45 NE16      29.89F
OGALLALA       CLOUDY    65  49  54 N6        29.91S
NORTH PLATTE   SUNNY     73  48  41 E10       29.89F
MCCOOK         SUNNY     72  54  53 NE13G22   29.87F
LEXINGTON      LGT RAIN  63  57  80 NE12      29.90F
PAXTON           N/A     64  59  84 E6          N/A
STAPLETON        N/A     73  48  41 CALM        N/A
GOTHENBURG       N/A     64  50  61 NW9         N/A
CALLAWAY         N/A     63  55  76 NW17        N/A
$$

...OBSERVATIONS IN CENTRAL LINCOLN COUNTY AREA...

CITY           SKY/WX    TMP DP  RH WIND       PRES   REMARKS
N.P. AIRPORT   SUNNY     73  48  41 E10       29.89F
N.P. DOWNTOWN    N/A     72  49  44 E8          N/A
N.P. SOUTHEAST   N/A     74  47  38 E3          N/A
N.P. HILLCREST   N/A     72  48  42 E12G20      N/A
$$

...SOME OBSERVATIONS FROM AROUND THE REGION...

CITY           SKY/WX    TMP DP  RH WIND       PRES   REMARKS
DENVER         PTSUNNY   63  44  50 E8        29.94F
LARAMIE        SUNNY     57  32  38 N8        30.00F
CHEYENNE       CLOUDY    62  36  37 S8        29.98F
SCOTTSBLUFF    MOSUNNY   70  42  36 CALM      29.93F
RAPID CITY     PTSUNNY   65  43  44 N8        29.89F
BISMARCK       SUNNY     69  48  47 W7        29.81F
PIERRE         SUNNY     71  54  54 S10       29.85F
SIOUX FALLS    PTSUNNY   73  47  39 CALM      29.89R
OMAHA          MOSUNNY   81  58  45 VRB3      29.85F
GRAND ISLAND   MOSUNNY   74  58  57 NE12      29.88F
KANSAS CITY    CLOUDY    71  66  84 S9        29.88S
WICHITA        PTSUNNY   84  73  69 S15G25    29.79S HX  90
OKLAHOMA CITY  CLOUDY    82  73  74 S21G30    29.82F
DALLAS         PTSUNNY   80  68  66 S12       29.87F
AMARILLO       SUNNY     84  36  18 SW14      29.82F
DODGE CITY     MOSUNNY   75  60  59 SE16G22   29.77R
HAYS           PTSUNNY   66  64  94 E10       29.76F
GOODLAND       CLOUDY    68  52  56 E15       29.86F
$$




USA.gov is the U.S. government's official web portal to all federal, state and local government web resources and services.